EW8476 Weather Reports


Display with metric or nautical units.
time (UTC)temp
F
wind
direction
speed
MPH
gust
MPH
rain 1hr
in
rain 24hr
in
rain mn
in
humidity
%
barometer
mb
20260508175516 73 186 6.0 11.0 0.00 0.04 0.00 82 937.2
20260508174604 72 177 3.0 9.0 0.00 0.05 0.00 81 937.1
20260508173615 72 191 5.0 10.0 0.00 0.05 0.00 81 937.3
20260508172542 72 203 9.0 13.0 0.00 0.05 0.00 82 937.3
20260508171528 71 166 5.0 9.0 0.00 0.05 0.00 83 937.6
20260508170603 71 211 8.0 12.0 0.00 0.05 0.00 83 937.6
20260508165545 71 194 6.0 10.0 0.00 0.05 0.00 84 937.7
20260508164529 70 188 6.0 10.0 0.00 0.05 0.00 85 937.6
20260508163515 69 191 6.0 9.0 0.00 0.05 0.00 86 937.8
20260508162619 68 189 7.0 12.0 0.00 0.05 0.00 86 938.0
20260508161536 68 190 9.0 13.0 0.00 0.05 0.00 87 938.1
20260508160518 67 190 8.0 12.0 0.00 0.05 0.00 88 938.1
20260508155602 66 191 6.0 10.0 0.00 0.06 0.00 89 938.1
20260508154549 65 196 8.0 11.0 0.00 0.07 0.00 91 937.9
20260508153556 64 183 6.0 9.0 0.00 0.07 0.00 91 938.0
20260508152523 64 174 7.0 10.0 0.00 0.07 0.00 92 938.0
20260508151612 63 184 8.0 10.0 0.00 0.08 0.00 93 938.1
20260508150552 62 180 7.0 10.0 0.00 0.09 0.00 93 938.1
20260508145535 62 185 7.0 9.0 0.00 0.09 0.00 93 938.2
20260508144718 61 184 6.0 9.0 0.00 0.09 0.00 94 938.3
20260508143555 61 184 5.0 9.0 0.00 0.09 0.00 96 938.1
20260508142537 60 169 5.0 8.0 0.00 0.09 0.00 97 938.0
20260508141522 60 195 3.0 5.0 0.00 0.09 0.00 97 938.1
20260508140610 59 186 3.0 5.0 0.00 0.09 0.00 97 938.1
20260508135557 59 202 3.0 9.0 0.00 0.09 0.00 97 937.9
20260508134544 58 198 3.0 8.0 0.00 0.09 0.00 97 937.9
20260508133532 58 191 4.0 9.0 0.00 0.09 0.00 97 937.9
20260508132520 58 225 3.0 8.0 0.00 0.09 0.00 96 937.9
20260508131601 57 171 3.0 6.0 0.00 0.09 0.00 96 937.8
20260508130546 57 185 3.0 8.0 0.00 0.09 0.00 96 938.0
20260508125524 57 220 4.0 7.0 0.00 0.09 0.00 96 937.8
20260508124630 57 167 2.0 4.0 0.00 0.09 0.00 96 937.8
20260508123611 56 213 2.0 4.0 0.00 0.09 0.00 95 937.7
20260508122529 57 202 2.0 5.0 0.00 0.09 0.00 94 937.8
20260508121649 57 187 2.0 6.0 0.00 0.09 0.00 94 938.3
20260508120551 57 224 3.0 7.0 0.00 0.09 0.00 93 938.4
20260508115537 57 213 1.0 4.0 0.00 0.09 0.00 93 938.4
20260508114522 57 167 3.0 9.0 0.00 0.10 0.00 93 938.3
20260508113610 57 171 3.0 7.0 0.00 0.10 0.00 93 938.1
20260508112555 57 191 4.0 8.0 0.00 0.10 0.00 93 938.1
20260508111532 57 195 2.0 5.0 0.00 0.10 0.00 92 938.0
20260508110541 57 166 3.0 9.0 0.00 0.10 0.00 91 938.0
20260508105607 57 180 3.0 6.0 0.00 0.10 0.00 91 938.0
20260508104554 57 113 3.0 7.0 0.00 0.10 0.00 90 938.0
20260508103554 57 206 2.0 6.0 0.00 0.10 0.00 88 937.8
20260508102521 57 213 4.0 9.0 0.00 0.10 0.00 87 937.9
20260508101629 57 173 1.0 6.0 0.00 0.10 0.00 86 938.0
20260508100553 57 235 3.0 7.0 0.00 0.10 0.00 85 938.2
20260508095540 57 27 2.0 10.0 0.00 0.10 0.00 83 938.3
20260508094527 57 260 0.0 7.0 0.00 0.10 0.00 83 938.4
20260508093615 57 354 3.0 8.0 0.00 0.10 0.00 82 938.4
20260508092556 57 309 2.0 10.0 0.00 0.10 0.00 82 938.4
20260508091538 57 220 3.0 7.0 0.00 0.10 0.00 82 938.4
20260508090536 57 179 2.0 4.0 0.00 0.10 0.00 81 938.2
20260508085619 57 174 3.0 5.0 0.00 0.10 0.00 80 938.2
20260508084539 57 166 3.0 6.0 0.00 0.11 0.00 80 937.9
20260508083526 57 164 2.0 5.0 0.00 0.11 0.00 79 937.9
20260508082614 57 137 3.0 7.0 0.00 0.11 0.00 79 937.8
20260508081553 57 167 3.0 8.0 0.00 0.11 0.00 79 937.7
20260508080540 57 172 3.0 7.0 0.00 0.11 0.00 79 938.0
20260508075527 57 160 3.0 8.0 0.00 0.11 0.00 79 938.2
20260508074615 57 174 3.0 9.0 0.00 0.11 0.00 80 938.4
20260508073601 57 186 4.0 6.0 0.00 0.11 0.00 80 938.5
20260508072546 57 183 5.0 9.0 0.00 0.11 0.00 79 938.3
20260508071533 58 186 4.0 7.0 0.00 0.11 0.00 77 938.1
20260508070520 58 182 3.0 5.0 0.00 0.11 0.00 77 938.0
20260508065602 58 169 3.0 6.0 0.00 0.11 0.00 77 937.9
20260508064608 58 178 2.0 5.0 0.00 0.11 0.00 76 937.9
20260508063535 58 193 1.0 3.0 0.00 0.11 0.00 76 937.7
20260508062522 58 0.0 3.0 0.00 0.11 0.00 76 937.6
20260508061558 58 94 1.0 2.0 0.00 0.11 0.00 78 937.8
20260508060537 57 73 1.0 4.0 0.00 0.11 0.00 79 938.0
20260508055519 57 121 0.0 3.0 0.00 0.11 0.00 80 938.4
20260508054602 57 0.0 2.0 0.00 0.11 0.00 81 938.4
20260508053550 57 62 1.0 2.0 0.00 0.11 0.00 80 938.6
20260508052534 57 0.0 1.0 0.00 0.11 0.00 81 938.6
20260508051614 57 0.0 2.0 0.00 0.11 0.00 81 938.6
20260508050559 57 110 0.0 1.0 0.00 0.11 0.00 82 938.9
20260508045536 57 0.0 2.0 0.00 0.11 0.11 82 938.6
20260508044523 57 3 0.0 2.0 0.00 0.11 0.11 83 938.4
20260508043615 57 0.0 1.0 0.00 0.11 0.11 82 938.8
20260508042622 57 29 1.0 2.0 0.00 0.11 0.11 83 939.0
20260508041544 57 131 1.0 2.0 0.00 0.11 0.11 84 939.1
20260508040526 57 263 1.0 2.0 0.00 0.11 0.11 83 938.9
20260508035610 57 345 1.0 2.0 0.00 0.11 0.11 81 938.8
20260508034608 58 356 0.0 2.0 0.00 0.11 0.11 81 939.1
20260508033535 58 65 0.0 2.0 0.00 0.11 0.11 81 938.7
20260508032522 58 68 0.0 2.0 0.00 0.11 0.11 81 938.7
20260508031610 58 234 0.0 2.0 0.00 0.11 0.11 81 938.6
20260508030553 58 45 1.0 3.0 0.00 0.11 0.11 82 938.3
20260508025540 58 137 0.0 2.0 0.00 0.11 0.11 83 938.8
20260508024516 58 0.0 2.0 0.00 0.11 0.11 83 938.7
20260508023605 59 132 1.0 2.0 0.00 0.11 0.11 83 938.9
20260508022551 59 265 0.0 2.0 0.00 0.11 0.11 82 939.1
20260508021529 59 76 1.0 2.0 0.00 0.11 0.11 82 939.2
20260508020536 59 276 1.0 3.0 0.00 0.11 0.11 83 939.0
20260508015602 59 331 1.0 2.0 0.00 0.11 0.11 82 938.2
20260508014546 59 117 2.0 4.0 0.00 0.11 0.11 82 938.4
20260508013529 59 290 1.0 3.0 0.00 0.11 0.11 82 938.4
20260508012612 59 321 2.0 4.0 0.00 0.11 0.11 79 937.6
20260508011555 59 88 1.0 3.0 0.00 0.11 0.11 78 937.4
20260508010539 60 19 0.0 4.0 0.00 0.11 0.11 76 938.0
20260508005524 60 43 1.0 2.0 0.00 0.11 0.11 76 938.0
20260508004604 60 0.0 2.0 0.00 0.11 0.11 76 938.0
20260508003545 60 66 1.0 3.0 0.00 0.11 0.11 74 938.0
20260508002528 60 18 1.0 5.0 0.00 0.11 0.11 74 937.9
20260508001611 60 67 1.0 4.0 0.00 0.11 0.11 73 937.7
20260508000554 61 69 2.0 4.0 0.00 0.11 0.11 72 937.9
20260507235532 61 79 1.0 5.0 0.00 0.11 0.11 72 938.0
20260507234609 61 71 2.0 4.0 0.00 0.11 0.11 72 938.5
20260507233554 61 69 1.0 4.0 0.00 0.11 0.11 70 938.9
20260507232538 61 63 2.0 6.0 0.00 0.11 0.11 70 938.2
20260507231545 61 106 4.0 6.0 0.00 0.11 0.11 69 938.3
20260507230628 61 78 2.0 6.0 0.00 0.11 0.11 70 938.6
20260507225555 61 105 1.0 3.0 0.00 0.11 0.11 71 939.4
20260507224535 60 48 2.0 5.0 0.00 0.11 0.11 71 939.3
20260507223635 61 140 1.0 5.0 0.00 0.11 0.11 69 939.6
20260507222623 61 109 2.0 5.0 0.00 0.11 0.11 70 939.1
20260507221542 60 121 1.0 4.0 0.00 0.11 0.11 71 938.9
20260507220529 60 74 3.0 8.0 0.00 0.11 0.11 71 939.1
20260507215516 60 72 2.0 7.0 0.00 0.11 0.11 74 939.4
20260507214604 60 121 2.0 5.0 0.00 0.11 0.11 75 939.4
20260507213546 60 53 3.0 5.0 0.00 0.11 0.11 74 939.9
20260507212524 60 82 2.0 6.0 0.00 0.11 0.11 75 940.2
20260507211604 60 47 2.0 4.0 0.00 0.11 0.11 77 940.2
20260507210547 59 62 3.0 9.0 0.00 0.11 0.11 77 940.1
20260507205534 59 60 5.0 8.0 0.00 0.11 0.11 76 939.9
20260507204522 59 49 3.0 11.0 0.00 0.11 0.11 77 940.2
20260507203609 59 39 3.0 11.0 0.00 0.11 0.11 80 940.5
20260507202556 58 42 4.0 9.0 0.00 0.11 0.11 81 940.4
20260507201543 58 56 3.0 6.0 0.00 0.11 0.11 82 940.9
20260507200530 58 66 3.0 8.0 0.00 0.11 0.11 83 940.9
20260507195631 57 70 2.0 5.0 0.00 0.11 0.11 86 940.6
20260507194554 57 52 2.0 5.0 0.00 0.11 0.11 87 940.7
20260507193538 57 59 3.0 7.0 0.00 0.11 0.11 89 940.7
20260507192524 57 99 2.0 6.0 0.00 0.11 0.11 90 940.6
20260507191612 56 88 3.0 9.0 0.01 0.11 0.11 92 940.8
20260507190559 55 93 2.0 7.0 0.03 0.12 0.11 94 940.5
20260507185537 55 75 1.0 4.0 0.04 0.12 0.11 95 940.7
20260507184523 55 56 2.0 6.0 0.05 0.12 0.11 96 940.5
20260507183604 54 44 4.0 9.0 0.05 0.12 0.11 96 941.1
20260507182551 55 10 3.0 9.0 0.05 0.12 0.11 96 941.6
20260507181536 54 38 4.0 7.0 0.04 0.11 0.10 95 941.2
20260507180521 54 321 3.0 9.0 0.02 0.09 0.07 95 941.8